AVA4848 SKIB-SKBO

Flight info

Callsign AVA4848
Flight time 0h 18m
Altitude 17000
Route ABL1H ABL ABL2L
Aircraft A320/M-SDE3FGHIRWY/LB1

Departure

Time 2026-05-06 20:04
Airport Perales Airport (SKIB)

Arrival

Time 2026-05-06 20:22
Airport El Dorado International Airport (SKBO)
Time Latitude Longitude Altitude Speed Heading
2026-05-06 20:00 4.42592 -75.14016 3043 ft 2 kts 142°
2026-05-06 20:00 4.42604 -75.14027 3043 ft 2 kts 134°
2026-05-06 20:00 4.42611 -75.14036 3044 ft 0 kts 131°
2026-05-06 20:02 4.42610 -75.14032 3044 ft 3 kts 120°
2026-05-06 20:02 4.42632 -75.14003 3044 ft 6 kts 45°
2026-05-06 20:02 4.42663 -75.13973 3044 ft 6 kts 46°
2026-05-06 20:03 4.42662 -75.13941 3044 ft 5 kts 125°
2026-05-06 20:03 4.42637 -75.13912 3043 ft 7 kts 130°
2026-05-06 20:03 4.42532 -75.13791 3045 ft 58 kts 131°
2026-05-06 20:03 4.42099 -75.13291 3047 ft 129 kts 131°
2026-05-06 20:04 4.41400 -75.12481 3212 ft 168 kts 134°
2026-05-06 20:04 4.40809 -75.11478 4069 ft 173 kts 109°
2026-05-06 20:04 4.40799 -75.10262 4743 ft 176 kts 75°
2026-05-06 20:04 4.41479 -75.09166 5014 ft 199 kts 47°
2026-05-06 20:05 4.42555 -75.08174 5194 ft 222 kts 41°
2026-05-06 20:05 4.43373 -75.07495 5285 ft 239 kts 40°
2026-05-06 20:05 4.45200 -75.05981 5590 ft 273 kts 40°
2026-05-06 20:05 4.46188 -75.05151 6066 ft 279 kts 40°
2026-05-06 20:06 4.48162 -75.03372 6900 ft 293 kts 44°
2026-05-06 20:06 4.49642 -75.01952 7669 ft 296 kts 44°
2026-05-06 20:06 4.51135 -75.00519 8473 ft 298 kts 44°
2026-05-06 20:06 4.52648 -74.99099 9328 ft 298 kts 43°
2026-05-06 20:07 4.53670 -74.98174 9914 ft 298 kts 43°
2026-05-06 20:07 4.55231 -74.96798 10600 ft 304 kts 43°
2026-05-06 20:07 4.56889 -74.95357 10809 ft 327 kts 42°
2026-05-06 20:07 4.59241 -74.93326 11417 ft 342 kts 42°
2026-05-06 20:08 4.61052 -74.91765 12099 ft 345 kts 43°
2026-05-06 20:08 4.62881 -74.90191 12794 ft 348 kts 43°
2026-05-06 20:08 4.64102 -74.89139 13246 ft 350 kts 43°
2026-05-06 20:08 4.65951 -74.87544 13921 ft 352 kts 43°
2026-05-06 20:09 4.67808 -74.85935 14513 ft 354 kts 43°
2026-05-06 20:09 4.69681 -74.84309 14802 ft 356 kts 43°
2026-05-06 20:09 4.71554 -74.82684 14883 ft 356 kts 43°
2026-05-06 20:09 4.73427 -74.81061 14898 ft 356 kts 43°
2026-05-06 20:10 4.75906 -74.78915 14897 ft 355 kts 43°
2026-05-06 20:10 4.77187 -74.77843 14889 ft 356 kts 38°
2026-05-06 20:10 4.79358 -74.76652 14888 ft 355 kts 22°
2026-05-06 20:10 4.81713 -74.76039 14786 ft 345 kts 14°
2026-05-06 20:11 4.84022 -74.75553 14253 ft 347 kts 14°
2026-05-06 20:11 4.86434 -74.75044 13375 ft 360 kts 15°
2026-05-06 20:11 4.88917 -74.74521 12549 ft 367 kts 14°
2026-05-06 20:11 4.91312 -74.73860 12070 ft 345 kts 29°
2026-05-06 20:12 4.93119 -74.72443 11670 ft 320 kts 56°
2026-05-06 20:12 4.94007 -74.70525 11534 ft 293 kts 81°
2026-05-06 20:12 4.94007 -74.68514 11556 ft 289 kts 102°
2026-05-06 20:12 4.93528 -74.66564 11556 ft 287 kts 104°
2026-05-06 20:13 4.93034 -74.64648 11562 ft 288 kts 104°
2026-05-06 20:13 4.92532 -74.62711 11565 ft 287 kts 104°
2026-05-06 20:13 4.92032 -74.60770 11564 ft 288 kts 104°
2026-05-06 20:13 4.91542 -74.58865 11569 ft 276 kts 104°
2026-05-06 20:14 4.91076 -74.57047 11563 ft 265 kts 104°
2026-05-06 20:14 4.90619 -74.55266 11577 ft 264 kts 104°
2026-05-06 20:14 4.90159 -74.53479 11585 ft 264 kts 104°
2026-05-06 20:14 4.89701 -74.51697 11586 ft 263 kts 104°
2026-05-06 20:15 4.89243 -74.49916 11599 ft 266 kts 104°
2026-05-06 20:15 4.88791 -74.48164 11602 ft 266 kts 105°
2026-05-06 20:15 4.88327 -74.46380 11598 ft 263 kts 105°
2026-05-06 20:15 4.87876 -74.44649 11619 ft 248 kts 104°
2026-05-06 20:16 4.87454 -74.43040 11659 ft 230 kts 104°
2026-05-06 20:16 4.87056 -74.41512 11692 ft 224 kts 104°
2026-05-06 20:16 4.86663 -74.40005 11742 ft 221 kts 104°
2026-05-06 20:16 4.86283 -74.38552 11742 ft 212 kts 104°
2026-05-06 20:17 4.85912 -74.37130 11751 ft 209 kts 104°
2026-05-06 20:17 4.85545 -74.35721 11778 ft 210 kts 104°
2026-05-06 20:17 4.85182 -74.34327 11794 ft 209 kts 104°
2026-05-06 20:17 4.84756 -74.32932 11810 ft 209 kts 113°
2026-05-06 20:18 4.83943 -74.31726 11770 ft 212 kts 131°
2026-05-06 20:18 4.82836 -74.30754 11502 ft 209 kts 136°
2026-05-06 20:18 4.81741 -74.29824 11274 ft 203 kts 137°
2026-05-06 20:18 4.80681 -74.28922 11066 ft 197 kts 137°
2026-05-06 20:19 4.79655 -74.28045 10852 ft 191 kts 136°
2026-05-06 20:19 4.78750 -74.27106 10662 ft 184 kts 124°
2026-05-06 20:19 4.78009 -74.26117 10494 ft 176 kts 125°
2026-05-06 20:19 4.77273 -74.25144 10309 ft 175 kts 125°
2026-05-06 20:20 4.76545 -74.24180 10151 ft 172 kts 126°
2026-05-06 20:20 4.75822 -74.23223 9984 ft 174 kts 123°
2026-05-06 20:20 4.75089 -74.22254 9783 ft 174 kts 126°
2026-05-06 20:20 4.74353 -74.21282 9559 ft 175 kts 127°
2026-05-06 20:21 4.73620 -74.20313 9307 ft 174 kts 125°
2026-05-06 20:21 4.72894 -74.19354 9054 ft 176 kts 126°
2026-05-06 20:21 4.72167 -74.18394 8798 ft 176 kts 127°
2026-05-06 20:21 4.71434 -74.17425 8540 ft 169 kts 128°
2026-05-06 20:22 4.70743 -74.16510 8371 ft 157 kts 128°
2026-05-06 20:22 4.70167 -74.15753 8363 ft 113 kts 128°
2026-05-06 20:22 4.69795 -74.15264 8365 ft 63 kts 127°
2026-05-06 20:22 4.69592 -74.15003 8363 ft 42 kts 128°
2026-05-06 20:23 4.69425 -74.14782 8363 ft 37 kts 127°
2026-05-06 20:23 4.69335 -74.14658 8362 ft 11 kts 111°
2026-05-06 20:23 4.69374 -74.14602 8363 ft 10 kts 35°
2026-05-06 20:23 4.69420 -74.14569 8364 ft 6 kts 36°
2026-05-06 20:24 4.69454 -74.14543 8365 ft 8 kts 38°
2026-05-06 20:24 4.69493 -74.14523 8365 ft 6 kts
2026-05-06 20:24 4.69538 -74.14557 8365 ft 15 kts 309°
2026-05-06 20:24 4.69632 -74.14683 8365 ft 25 kts 307°
2026-05-06 20:25 4.69719 -74.14798 8365 ft 13 kts 317°
2026-05-06 20:25 4.69783 -74.14787 8366 ft 12 kts 40°
2026-05-06 20:25 4.69850 -74.14724 8366 ft 11 kts 76°
2026-05-06 20:25 4.69813 -74.14661 8366 ft 8 kts 128°
2026-05-06 20:26 4.69766 -74.14667 8366 ft 8 kts 218°
2026-05-06 20:26 4.69757 -74.14674 8366 ft 0 kts 221°